This demonstration page uses our WeatherBlox Daily Observations layout. Learn more.

Left ArrowRight Arrow

Hourly Observations for September 30, 2019

Temp ( °F °C ) Dew Point ( °F °C ) Humidity (%) Winds ( mph kmh ) Pressure ( in mb ) Visibility ( mi km ) Precip ( " mm )
12:53 am 00:53 Mostly Clear 76 24.4 70 21.1 82 82 S 12 19 29.74 1007 10 16 0.00 0.00
1:53 am 01:53 Clear 75 23.9 70 21.1 84 84 S 16 26 29.74 1007 10 16 0.00 0.00
2:53 am 02:53 Clear 75 23.9 69 20.6 82 82 S 14 22 29.75 1007 10 16 0.00 0.00
3:53 am 03:53 Clear 75 23.9 68 20 79 79 S 15 24 29.72 1006 10 16 0.00 0.00
4:53 am 04:53 Clear 74 23.3 68 20 82 82 S 20 31 29.71 1006 10 16 0.00 0.00
5:53 am 05:53 Clear 74 23.3 68 20 82 82 S 16 26 29.72 1006 10 16 0.00 0.00
6:53 am 06:53 Clear 73 22.8 67 19.4 81 81 S 15 24 29.72 1006 10 16 0.00 0.00
7:53 am 07:53 Sunny 73 22.8 67 19.4 81 81 S 17 28 29.72 1007 10 16 0.00 0.00
8:53 am 08:53 Sunny 75 23.9 67 19.4 76 76 S 16 26 29.74 1007 10 16 0.00 0.00
9:53 am 09:53 Sunny 77 25 67 19.4 71 71 S 20 31 29.73 1007 10 16 0.00 0.00
10:53 am 10:53 Sunny 81 27.2 67 19.4 62 62 S 21 33 29.72 1007 10 16 0.00 0.00
11:53 am 11:53 Sunny 85 29.4 65 18.3 51 51 S 17 28 29.72 1006 10 16 0.00 0.00
12:53 pm 12:53 Sunny 89 31.7 63 17.2 42 42 SSW 24 39 29.70 1006 10 16 0.00 0.00
1:53 pm 13:53 Sunny 90 32.2 62 16.7 39 39 SSW 20 31 29.70 1006 10 16 0.00 0.00
2:53 pm 14:53 Sunny 92 33.3 63 17.2 38 38 S 20 31 29.68 1005 10 16 0.00 0.00
3:53 pm 15:53 Mostly Sunny 92 33.3 64 17.8 40 40 SSW 17 28 29.69 1005 10 16 0.00 0.00
4:53 pm 16:53 Partly Cloudy 92 33.3 66 18.9 43 43 S 18 30 29.69 1006 10 16 0.00 0.00
5:53 pm 17:53 Mostly Sunny 87 30.6 67 19.4 51 51 S 9 15 29.70 1006 10 16 0.00 0.00
6:53 pm 18:53 Partly Cloudy with Nearby Thunderstorms 85 29.4 66 18.9 53 53 S 15 24 29.70 1006 10 16 0.00 0.00
7:20 pm 19:20 Cloudy with Thunderstorms 77 25 70 21 79 79 SSW 25 41 29.69 1005 4 6 0.00 0.00
7:50 pm 19:50 Mostly Cloudy 79 26 66 19 65 65 S 10 17 29.69 1005 10 16 0.00 0.00
7:53 pm 19:53 Mostly Cloudy 79 26.1 66 18.9 65 65 S 9 15 29.74 1007 10 16 0.11 2.79
8:53 pm 20:53 Mostly Cloudy 72 22.2 64 17.8 76 76 N 9 15 29.80 1009 10 16 0.00 0.00
9:53 pm 21:53 Cloudy 70 21.1 64 17.8 82 82 NE 6 9 29.80 1009 10 16 0.00 0.00
10:53 pm 22:53 Cloudy 70 21.1 63 17.2 79 79 NNE 8 13 29.81 1010 10 16 0.00 0.00
11:53 pm 23:53 Cloudy 68 20 64 17.8 87 87 ENE 7 11 29.80 1009 10 16 0.00 0.00

Powered by AerisWeather